TimeEST,TemperatureF,Dew PointF,Humidity,Sea Level PressureIn,VisibilityMPH,Wind Direction,Wind SpeedMPH,Gust SpeedMPH,PrecipitationIn,Events,Conditions,WindDirDegrees,DateUTC
12:54 AM,34.0,17.1,50,30.28,10.0,NNW,9.2,18.4,N/A,,Clear,330,2012-12-06 05:54:00
1:54 AM,33.1,17.1,52,30.30,10.0,NNW,3.5,-,N/A,,Clear,330,2012-12-06 06:54:00
2:54 AM,32.0,17.1,54,30.31,10.0,WNW,3.5,-,N/A,,Clear,290,2012-12-06 07:54:00
3:54 AM,30.9,18.0,59,30.31,10.0,NW,8.1,-,N/A,,Clear,310,2012-12-06 08:54:00
4:54 AM,30.0,18.0,61,30.32,10.0,NW,5.8,-,N/A,,Clear,320,2012-12-06 09:54:00
5:54 AM,28.9,19.0,67,30.33,10.0,NNW,4.6,-,N/A,,Clear,340,2012-12-06 10:54:00
6:54 AM,28.0,18.0,66,30.36,10.0,Calm,Calm,-,N/A,,Clear,0,2012-12-06 11:54:00
7:54 AM,30.0,19.9,66,30.37,10.0,NW,3.5,-,N/A,,Clear,320,2012-12-06 12:54:00
8:54 AM,33.1,19.9,59,30.38,10.0,NNE,8.1,-,N/A,,Clear,20,2012-12-06 13:54:00
9:54 AM,36.0,19.0,50,30.40,10.0,NNE,5.8,-,N/A,,Clear,30,2012-12-06 14:54:00
10:54 AM,37.0,18.0,46,30.37,10.0,ENE,6.9,-,N/A,,Clear,60,2012-12-06 15:54:00
11:54 AM,37.0,18.0,46,30.35,10.0,East,5.8,-,N/A,,Clear,90,2012-12-06 16:54:00
12:54 PM,37.9,18.0,45,30.32,10.0,Calm,Calm,-,N/A,,Clear,0,2012-12-06 17:54:00
1:54 PM,41.0,19.0,41,30.30,10.0,Calm,Calm,-,N/A,,Clear,0,2012-12-06 18:54:00
2:54 PM,41.0,19.0,41,30.29,10.0,Calm,Calm,-,N/A,,Clear,0,2012-12-06 19:54:00
3:54 PM,39.9,19.0,43,30.30,10.0,Calm,Calm,-,N/A,,Clear,0,2012-12-06 20:54:00
4:54 PM,35.1,19.9,54,30.30,10.0,Calm,Calm,-,N/A,,Clear,0,2012-12-06 21:54:00
5:54 PM,32.0,19.9,61,30.30,10.0,Calm,Calm,-,N/A,,Clear,0,2012-12-06 22:54:00
6:54 PM,30.9,19.9,64,30.31,10.0,Calm,Calm,-,N/A,,Clear,0,2012-12-06 23:54:00
7:54 PM,30.9,21.0,67,30.32,10.0,Calm,Calm,-,N/A,,Clear,0,2012-12-07 00:54:00
8:54 PM,28.9,21.9,75,30.32,10.0,Calm,Calm,-,N/A,,Clear,0,2012-12-07 01:54:00
9:54 PM,27.0,21.9,81,30.31,10.0,Calm,Calm,-,N/A,,Clear,0,2012-12-07 02:54:00
10:54 PM,27.0,23.0,85,30.31,10.0,Calm,Calm,-,N/A,,Clear,0,2012-12-07 03:54:00
11:54 PM,27.0,21.9,81,30.30,10.0,Calm,Calm,-,N/A,,Clear,0,2012-12-07 04:54:00